Location: Essen
(51.4609°N, 7.0127°E)
Time: 21:24:06
(UTC+02:00)

ISS - Pass Details

Date: 09 January 2018
Orbit: 401 x 409 km, 51.6° (Epoch: 22 August)

Event Time Altitude Azimuth Distance (km) Brightness Sun altitude
Exits shadow 05:52:37 40° 99° (E) 634 -2.4 -24.2°
Drops below altitude 10° 05:54:55 10° 99° (E) 1,514 0.2 -23.9°
Sets 05:57:02 0° 99° (E) 2,381 1.5 -23.5°
